Location: Dalton
(42.4737°N, 73.1662°W)
Time: 12:06:11
(UTC+00:00)

ACS3 Solar Sail - Pass Details

Date: 26 September 2024
Orbit: 961 x 1035 km, 97.4° (Epoch: 08 October)

Event Time Altitude Azimuth Distance (km) Brightness Sun altitude
Exits shadow 02:55:05 10° 256° (WSW) 2,845 4.4 -42.2°
Reaches altitude 10° 02:55:08 10° 256° (WSW) 2,840 4.4 -42.2°
Maximum altitude 02:57:17 12° 276° (W) 2,716 4.5 -42.5°
Drops below altitude 10° 02:59:25 10° 296° (WNW) 2,844 4.7 -42.7°
Sets 03:04:08 0° 327° (NNW) 3,796 5.7 -43.2°
